Weyburn, Saskatchewan

8:02 PM CST on December 05, 2016 (GMT -0600)
Weyburn

Weather History for CWWF - October, 2011

Change the Weather History Date:

Monday, October 24, 2011

  Actual Average Record
Temperature  
Mean Temperature 36 °F -  
Max Temperature 47 °F - - ()
Min Temperature 25 °F - - ()
Degree Days  
Heating Degree Days 29    
Moisture  
Dew Point 31 °F    
Average Humidity 79    
Maximum Humidity 93    
Minimum Humidity 51    
Precipitation  
Precipitation 0.00 in - - ()
Sea Level Pressure  
Sea Level Pressure 30.04 in    
Wind  
Wind Speed 6 mph ()    
Max Wind Speed 10 mph    
Max Gust Speed -    
T = Trace of Precipitation, MM = Missing Value Source: Averaged Metar Reports

Daily Weather History Graph

Daily Weather History Graph

Search for Another Location

Airport or City:

Trip Planner

Search our weather history database for the weather conditions in past years. The results will help you decide how hot, cold, wet, or windy it might be!

Date:

Astronomy

Oct. 24, 2011 Rise Set
Actual Time 7:30 AM CST 5:47 PM CST
Civil Twilight 6:57 AM CST 6:20 PM CST
Nautical Twilight 6:20 AM CST 6:57 PM CST
Astronomical Twilight 5:43 AM CST 7:34 PM CST
Moon 4:41 AM CST (10/24) 4:20 PM CST (10/24)
Length of Visible Light 11h 22m
Length of Day
10h 16m
Waning Crescent, 7% of the Moon is Illuminated
Oct 24
Waning Crescent
Oct 26
New
Nov 2
First Quarter
Nov 10
Full
Nov 18
Last Quarter

Hourly Weather History & Observations

Time (CST) Temp. Windchill Dew Point Humidity Pressure Visibility Wind Dir Wind Speed Gust Speed Precip Events Conditions
12:00 AM 33 °F - 30 °F 82% 30.02 in - NW 10.4 mph - -  
12:00 AM 32.9 °F 24.7 °F 29.7 °F 88% 30.02 in - NW 10.4 mph - N/A   Unknown
1:00 AM 30.6 °F 23.8 °F 27.9 °F 90% 30.04 in - WNW 6.9 mph - N/A   Unknown
2:00 AM 27.5 °F 20.2 °F 25.7 °F 93% 30.04 in - NW 6.9 mph - N/A   Unknown
3:00 AM 27.9 °F 24.0 °F 25.7 °F 92% 30.04 in - WNW 3.5 mph - N/A   Unknown
4:00 AM 27.3 °F 23.4 °F 25.5 °F 93% 30.04 in - NW 3.5 mph - N/A   Unknown
5:00 AM 26.6 °F 22.6 °F 24.4 °F 92% 30.05 in - WSW 3.5 mph - N/A   Unknown
6:00 AM 29 °F - 26 °F 83% 30.05 in - WSW 4.6 mph - -  
6:00 AM 28.6 °F 23.5 °F 25.9 °F 90% 30.05 in - WSW 4.6 mph - N/A   Unknown
7:00 AM 26.1 °F 20.5 °F 24.1 °F 92% 30.06 in - SSW 4.6 mph - N/A   Unknown
8:00 AM 25.2 °F 20.9 °F 23.0 °F 91% 30.06 in - SSE 3.5 mph - N/A   Unknown
9:00 AM 28.8 °F 22.6 °F 26.6 °F 92% 30.06 in - South 5.8 mph - N/A   Unknown
10:00 AM 37.9 °F 35.5 °F 31.6 °F 78% 30.04 in - South 3.5 mph - N/A   Unknown
11:00 AM 45.1 °F 42.8 °F 34.5 °F 66% 30.03 in - South 4.6 mph - N/A   Unknown
12:00 PM 46 °F - 34 °F 51% 30.03 in - SSW 6.9 mph - -  
12:00 PM 46.0 °F 42.5 °F 33.6 °F 62% 30.03 in - SSW 6.9 mph - N/A   Unknown
1:00 PM 46.2 °F 43.3 °F 35.6 °F 66% 30.03 in - South 5.8 mph - N/A   Unknown
2:00 PM 47.5 °F - 34.2 °F 60% 30.02 in - South 6.9 mph - N/A   Unknown
3:00 PM 47.3 °F - 34.7 °F 62% 30.01 in - SSE 8.1 mph - N/A   Unknown
4:00 PM 47.5 °F - 34.9 °F 62% 30.02 in - East 5.8 mph - N/A   Unknown
5:00 PM 44.2 °F 41.0 °F 33.6 °F 66% 30.03 in - ESE 5.8 mph - N/A   Unknown
6:00 PM 42 °F - 34 °F 64% 30.04 in - East 6.9 mph - -  
6:00 PM 41.5 °F 37.1 °F 34.0 °F 75% 30.04 in - East 6.9 mph - N/A   Unknown
7:00 PM 39.2 °F 34.2 °F 32.9 °F 78% 30.05 in - East 6.9 mph - N/A   Unknown
8:00 PM 38.7 °F 34.3 °F 33.6 °F 82% 30.06 in - ESE 5.8 mph - N/A   Unknown
9:00 PM 39.7 °F 36.5 °F 33.8 °F 79% 30.06 in - ESE 4.6 mph - N/A   Unknown
10:00 PM 40.3 °F 36.3 °F 35.6 °F 83% 30.07 in - South 5.8 mph - N/A   Unknown
11:00 PM 40.8 °F 37.8 °F 37.9 °F 89% 30.07 in - SW 4.6 mph - N/A   Unknown